| time (UTC) | temp F | wind direction | speed knots | gust knots | rain 1hr in | rain 24hr in | rain mn in | humidity % | barometer mb |
| 20260904040411 | 80 | 271 | 2.6 | 2.6 | 0.00 | 0.00 | 0.00 | 63 | 1015.1 |
| 20260904035910 | 80 | 276 | 1.7 | 2.6 | 0.00 | 0.00 | 0.00 | 62 | 1015.0 |
| 20260904035410 | 80 | 238 | 0.9 | 2.6 | 0.00 | 0.00 | 0.00 | 60 | 1015.0 |
| 20260904034409 | 81 | 265 | 1.7 | 2.6 | 0.00 | 0.00 | 0.00 | 59 | 1015.0 |
| 20260904033909 | 81 | 245 | 1.7 | 2.6 | 0.00 | 0.00 | 0.00 | 59 | 1015.0 |
| 20260904033410 | 81 | 252 | 1.7 | 2.6 | 0.00 | 0.00 | 0.00 | 57 | 1015.1 |
| 20260904032910 | 81 | 310 | 1.7 | 2.6 | 0.00 | 0.00 | 0.00 | 57 | 1015.1 |
| 20260904031910 | 81 | 299 | 1.7 | 2.6 | 0.00 | 0.00 | 0.00 | 56 | 1015.0 |
| 20260904031410 | 81 | 293 | 1.7 | 2.6 | 0.00 | 0.00 | 0.00 | 56 | 1015.1 |
| 20260904030409 | 81 | 294 | 1.7 | 2.6 | 0.00 | 0.00 | 0.00 | 56 | 1015.1 |
| 20260904025909 | 81 | 292 | 1.7 | 2.6 | 0.00 | 0.00 | 0.00 | 56 | 1015.2 |
| 20260904025409 | 81 | 282 | 1.7 | 2.6 | 0.00 | 0.00 | 0.00 | 56 | 1015.2 |
| 20260904024409 | 81 | 289 | 1.7 | 2.6 | 0.00 | 0.00 | 0.00 | 56 | 1015.3 |
| 20260904023909 | 81 | 249 | 1.7 | 2.6 | 0.00 | 0.00 | 0.00 | 56 | 1015.2 |
| 20260904022909 | 81 | 279 | 2.6 | 2.6 | 0.00 | 0.00 | 0.00 | 56 | 1015.2 |
| 20260904022410 | 81 | 269 | 1.7 | 2.6 | 0.00 | 0.00 | 0.00 | 56 | 1015.2 |
| 20260904021915 | 80 | 279 | 1.7 | 2.6 | 0.00 | 0.00 | 0.00 | 56 | 1015.2 |
| 20260904021412 | 80 | 268 | 1.7 | 2.6 | 0.00 | 0.00 | 0.00 | 56 | 1015.2 |
| 20260904020409 | 80 | 267 | 2.6 | 2.6 | 0.00 | 0.00 | 0.00 | 56 | 1015.2 |
| 20260904015909 | 81 | 263 | 1.7 | 2.6 | 0.00 | 0.00 | 0.00 | 58 | 1015.3 |
| 20260904014908 | 80 | 292 | 1.7 | 2.6 | 0.00 | 0.00 | 0.00 | 57 | 1015.3 |
| 20260904013410 | 81 | 243 | 1.7 | 2.6 | 0.00 | 0.00 | 0.00 | 58 | 1015.1 |
| 20260904012909 | 80 | 263 | 2.6 | 2.6 | 0.00 | 0.00 | 0.00 | 58 | 1015.1 |
| 20260904011909 | 80 | 266 | 2.6 | 2.6 | 0.00 | 0.00 | 0.00 | 59 | 1015.1 |
| 20260904011410 | 80 | 263 | 1.7 | 2.6 | 0.00 | 0.00 | 0.00 | 59 | 1015.0 |
| 20260904010909 | 80 | 275 | 1.7 | 2.6 | 0.00 | 0.00 | 0.00 | 60 | 1015.1 |
| 20260904010409 | 80 | 261 | 2.6 | 2.6 | 0.00 | 0.00 | 0.00 | 59 | 1015.0 |
| 20260904005910 | 80 | 256 | 2.6 | 2.6 | 0.00 | 0.00 | 0.00 | 60 | 1015.0 |
| 20260904005410 | 81 | 263 | 1.7 | 2.6 | 0.00 | 0.00 | 0.00 | 61 | 1015.0 |
| 20260904004910 | 81 | 236 | 2.6 | 2.6 | 0.00 | 0.00 | 0.00 | 59 | 1015.0 |
| 20260904003909 | 81 | 275 | 1.7 | 2.6 | 0.00 | 0.00 | 0.00 | 59 | 1015.0 |
| 20260904003410 | 80 | 259 | 1.7 | 2.6 | 0.00 | 0.00 | 0.00 | 60 | 1015.0 |
| 20260904002410 | 80 | 249 | 1.7 | 2.6 | 0.00 | 0.00 | 0.00 | 61 | 1015.1 |
| 20260904001910 | 80 | 222 | 1.7 | 2.6 | 0.00 | 0.00 | 0.00 | 61 | 1015.1 |
| 20260904001409 | 80 | 257 | 1.7 | 2.6 | 0.00 | 0.00 | 0.00 | 62 | 1015.1 |
| 20260904000909 | 80 | 233 | 1.7 | 2.6 | 0.00 | 0.00 | 0.00 | 62 | 1015.1 |
| 20260904000410 | 80 | 240 | 1.7 | 2.6 | 0.00 | 0.00 | 0.00 | 62 | 1015.0 |
| 20260903235908 | 80 | 239 | 1.7 | 2.6 | 0.00 | 0.00 | 0.00 | 62 | 1015.0 |
| 20260903235409 | 80 | 249 | 1.7 | 1.7 | 0.00 | 0.00 | 0.00 | 61 | 1015.0 |
| 20260903234909 | 80 | 235 | 1.7 | 2.6 | 0.00 | 0.00 | 0.00 | 62 | 1015.0 |
| 20260903234410 | 80 | 254 | 1.7 | 2.6 | 0.00 | 0.00 | 0.00 | 63 | 1015.0 |
| 20260903233909 | 80 | 267 | 1.7 | 2.6 | 0.00 | 0.00 | 0.00 | 63 | 1015.0 |
| 20260903233410 | 80 | 264 | 2.6 | 2.6 | 0.00 | 0.00 | 0.00 | 63 | 1015.0 |
| 20260903232909 | 81 | 237 | 1.7 | 2.6 | 0.00 | 0.00 | 0.00 | 62 | 1015.0 |
| 20260903232409 | 81 | 256 | 1.7 | 2.6 | 0.00 | 0.00 | 0.00 | 59 | 1015.0 |
| 20260903231910 | 82 | 267 | 1.7 | 2.6 | 0.00 | 0.00 | 0.00 | 59 | 1015.0 |
| 20260903231409 | 82 | 275 | 1.7 | 2.6 | 0.00 | 0.00 | 0.00 | 57 | 1015.0 |
| 20260903230408 | 82 | 277 | 1.7 | 2.6 | 0.00 | 0.00 | 0.00 | 56 | 1015.0 |
| 20260903225909 | 82 | 283 | 1.7 | 2.6 | 0.00 | 0.00 | 0.00 | 56 | 1015.1 |
| 20260903224910 | 82 | 286 | 1.7 | 2.6 | 0.00 | 0.00 | 0.00 | 56 | 1015.0 |
| 20260903224409 | 82 | 313 | 1.7 | 2.6 | 0.00 | 0.00 | 0.00 | 56 | 1015.0 |
| 20260903223409 | 82 | 273 | 2.6 | 2.6 | 0.00 | 0.00 | 0.00 | 56 | 1015.1 |
| 20260903222409 | 82 | 293 | 2.6 | 4.3 | 0.00 | 0.00 | 0.00 | 56 | 1015.1 |
| 20260903221910 | 82 | 299 | 1.7 | 4.3 | 0.00 | 0.00 | 0.00 | 57 | 1015.1 |
| 20260903221409 | 82 | 311 | 1.7 | 4.3 | 0.00 | 0.00 | 0.00 | 58 | 1015.1 |
| 20260903220409 | 82 | 270 | 1.7 | 2.6 | 0.00 | 0.00 | 0.00 | 58 | 1015.2 |
| 20260903215910 | 82 | 288 | 1.7 | 2.6 | 0.00 | 0.00 | 0.00 | 58 | 1015.2 |
| 20260903215410 | 82 | 304 | 2.6 | 5.2 | 0.00 | 0.00 | 0.00 | 58 | 1015.2 |
| 20260903214909 | 82 | 315 | 1.7 | 2.6 | 0.00 | 0.00 | 0.00 | 59 | 1015.1 |
| 20260903214409 | 82 | 297 | 1.7 | 2.6 | 0.00 | 0.00 | 0.00 | 60 | 1015.0 |
| 20260903213908 | 82 | 300 | 2.6 | 2.6 | 0.00 | 0.00 | 0.00 | 60 | 1015.1 |
| 20260903213408 | 82 | 281 | 0.9 | 2.6 | 0.00 | 0.00 | 0.00 | 61 | 1015.1 |
| 20260903212909 | 82 | 291 | 1.7 | 2.6 | 0.00 | 0.00 | 0.00 | 61 | 1015.1 |
| 20260903212409 | 82 | 278 | 1.7 | 2.6 | 0.00 | 0.00 | 0.00 | 62 | 1015.1 |
| 20260903211408 | 82 | 266 | 0.9 | 2.6 | 0.00 | 0.00 | 0.00 | 60 | 1015.1 |
| 20260903210910 | 82 | 287 | 1.7 | 2.6 | 0.00 | 0.00 | 0.00 | 60 | 1015.1 |
| 20260903205410 | 82 | 301 | 1.7 | 2.6 | 0.00 | 0.00 | 0.00 | 63 | 1015.2 |
| 20260903204909 | 82 | 289 | 1.7 | 2.6 | 0.00 | 0.00 | 0.00 | 63 | 1015.2 |
| 20260903203909 | 82 | 282 | 2.6 | 2.6 | 0.00 | 0.00 | 0.00 | 62 | 1015.2 |
| 20260903203410 | 82 | 251 | 1.7 | 5.2 | 0.00 | 0.00 | 0.00 | 61 | 1015.1 |
| 20260903202910 | 82 | 297 | 1.7 | 2.6 | 0.00 | 0.00 | 0.00 | 60 | 1015.1 |
| 20260903202409 | 82 | 286 | 0.9 | 2.6 | 0.00 | 0.00 | 0.00 | 60 | 1015.1 |
| 20260903201908 | 82 | 329 | 0.9 | 2.6 | 0.00 | 0.00 | 0.00 | 59 | 1015.1 |
| 20260903201410 | 82 | 301 | 0.9 | 2.6 | 0.00 | 0.00 | 0.00 | 59 | 1015.1 |
| 20260903200909 | 82 | 343 | 1.7 | 2.6 | 0.00 | 0.00 | 0.00 | 59 | 1015.1 |
| 20260903200409 | 82 | 286 | 1.7 | 2.6 | 0.00 | 0.00 | 0.00 | 59 | 1015.1 |
| 20260903195409 | 82 | 310 | 1.7 | 2.6 | 0.00 | 0.00 | 0.00 | 57 | 1015.0 |
| 20260903194909 | 83 | 311 | 1.7 | 2.6 | 0.00 | 0.00 | 0.00 | 57 | 1015.0 |
| 20260903194409 | 83 | 327 | 0.9 | 2.6 | 0.00 | 0.00 | 0.00 | 56 | 1015.0 |
| 20260903193909 | 83 | 323 | 1.7 | 2.6 | 0.00 | 0.00 | 0.00 | 55 | 1015.0 |
| 20260903193409 | 83 | 138 | 1.7 | 2.6 | 0.00 | 0.00 | 0.00 | 55 | 1015.0 |
| 20260903192408 | 83 | 39 | 1.7 | 2.6 | 0.00 | 0.00 | 0.00 | 53 | 1014.9 |
| 20260903191909 | 83 | 0 | 1.7 | 2.6 | 0.00 | 0.00 | 0.00 | 53 | 1014.9 |
| 20260903191410 | 84 | 340 | 1.7 | 2.6 | 0.00 | 0.00 | 0.00 | 52 | 1014.8 |
| 20260903190909 | 84 | 272 | 1.7 | 2.6 | 0.00 | 0.00 | 0.00 | 52 | 1014.7 |
| 20260903190409 | 84 | 351 | 1.7 | 2.6 | 0.00 | 0.00 | 0.00 | 51 | 1014.7 |
| 20260903185409 | 84 | 334 | 1.7 | 2.6 | 0.00 | 0.00 | 0.00 | 51 | 1014.6 |
| 20260903183910 | 85 | 339 | 0.9 | 2.6 | 0.00 | 0.00 | 0.00 | 50 | 1014.6 |
| 20260903183409 | 85 | 297 | 1.7 | 2.6 | 0.00 | 0.00 | 0.00 | 49 | 1014.5 |
| 20260903182909 | 85 | 346 | 1.7 | 2.6 | 0.00 | 0.00 | 0.00 | 49 | 1014.5 |
| 20260903182410 | 85 | 312 | 0.9 | 2.6 | 0.00 | 0.00 | 0.00 | 49 | 1014.4 |
| 20260903181909 | 85 | 71 | 1.7 | 2.6 | 0.00 | 0.00 | 0.00 | 49 | 1014.3 |
| 20260903181410 | 85 | 306 | 1.7 | 2.6 | 0.00 | 0.00 | 0.00 | 49 | 1014.2 |
| 20260903180410 | 86 | 102 | 1.7 | 2.6 | 0.00 | 0.00 | 0.00 | 47 | 1014.2 |
| 20260903175910 | 86 | 307 | 1.7 | 2.6 | 0.00 | 0.00 | 0.00 | 47 | 1014.2 |
| 20260903175409 | 86 | 10 | 1.7 | 2.6 | 0.00 | 0.00 | 0.00 | 47 | 1014.2 |
| 20260903174909 | 86 | 301 | 1.7 | 2.6 | 0.00 | 0.00 | 0.00 | 46 | 1014.2 |
| 20260903173909 | 87 | 284 | 1.7 | 4.3 | 0.00 | 0.00 | 0.00 | 45 | 1014.2 |
| 20260903173408 | 87 | 344 | 1.7 | 4.3 | 0.00 | 0.00 | 0.00 | 45 | 1014.1 |
| 20260903172909 | 87 | 312 | 1.7 | 4.3 | 0.00 | 0.00 | 0.00 | 44 | 1014.1 |
| 20260903172408 | 87 | 335 | 2.6 | 4.3 | 0.00 | 0.00 | 0.00 | 43 | 1014.0 |
| 20260903171908 | 88 | 322 | 1.7 | 4.3 | 0.00 | 0.00 | 0.00 | 43 | 1014.0 |
| 20260903171409 | 88 | 307 | 2.6 | 5.2 | 0.00 | 0.00 | 0.00 | 43 | 1013.9 |
| 20260903170410 | 89 | 84 | 1.7 | 2.6 | 0.00 | 0.00 | 0.00 | 42 | 1013.9 |
| 20260903165909 | 88 | 287 | 1.7 | 4.3 | 0.00 | 0.00 | 0.00 | 42 | 1013.9 |
| 20260903164409 | 89 | 312 | 2.6 | 4.3 | 0.00 | 0.00 | 0.00 | 39 | 1013.8 |
| 20260903163910 | 89 | 295 | 1.7 | 4.3 | 0.00 | 0.00 | 0.00 | 39 | 1013.8 |
| 20260903163409 | 89 | 301 | 2.6 | 5.2 | 0.00 | 0.00 | 0.00 | 38 | 1013.8 |
| 20260903162909 | 90 | 339 | 1.7 | 4.3 | 0.00 | 0.00 | 0.00 | 39 | 1013.7 |
| 20260903162409 | 90 | 295 | 1.7 | 12.2 | 0.00 | 0.00 | 0.00 | 38 | 1013.7 |
| 20260903161909 | 90 | 313 | 2.6 | 5.2 | 0.00 | 0.00 | 0.00 | 37 | 1013.7 |
| 20260903161409 | 90 | 354 | 2.6 | 6.1 | 0.00 | 0.00 | 0.00 | 36 | 1013.7 |
| 20260903160909 | 90 | 17 | 1.7 | 5.2 | 0.00 | 0.00 | 0.00 | 37 | 1013.7 |
| 20260903160408 | 90 | 311 | 1.7 | 4.3 | 0.00 | 0.00 | 0.00 | 36 | 1013.7 |
| 20260903155909 | 90 | 359 | 2.6 | 6.1 | 0.00 | 0.00 | 0.00 | 36 | 1013.6 |
| 20260903155410 | 91 | 321 | 2.6 | 6.1 | 0.00 | 0.00 | 0.00 | 36 | 1013.6 |
| 20260903154909 | 91 | 319 | 1.7 | 2.6 | 0.00 | 0.00 | 0.00 | 36 | 1013.5 |
| 20260903153909 | 91 | 291 | 2.6 | 5.2 | 0.00 | 0.00 | 0.00 | 35 | 1013.4 |
| 20260903153408 | 91 | 304 | 2.6 | 7.0 | 0.00 | 0.00 | 0.00 | 35 | 1013.4 |
| 20260903152910 | 91 | 326 | 2.6 | 6.1 | 0.00 | 0.00 | 0.00 | 35 | 1013.4 |
| 20260903152409 | 91 | 326 | 2.6 | 7.0 | 0.00 | 0.00 | 0.00 | 36 | 1013.3 |
| 20260903151908 | 91 | 308 | 2.6 | 7.0 | 0.00 | 0.00 | 0.00 | 37 | 1013.3 |
| 20260903151409 | 91 | 339 | 2.6 | 2.6 | 0.00 | 0.00 | 0.00 | 37 | 1013.4 |
| 20260903145408 | 91 | 351 | 3.5 | 6.1 | 0.00 | 0.00 | 0.00 | 37 | 1013.3 |
| 20260903144408 | 92 | 293 | 2.6 | 4.3 | 0.00 | 0.00 | 0.00 | 36 | 1013.3 |
| 20260903143408 | 92 | 316 | 2.6 | 6.1 | 0.00 | 0.00 | 0.00 | 36 | 1013.2 |
| 20260903142909 | 92 | 288 | 3.5 | 6.1 | 0.00 | 0.00 | 0.00 | 35 | 1013.2 |
| 20260903142409 | 92 | 309 | 2.6 | 7.8 | 0.00 | 0.00 | 0.00 | 35 | 1013.2 |
| 20260903141909 | 92 | 285 | 2.6 | 6.1 | 0.00 | 0.00 | 0.00 | 34 | 1013.2 |
| 20260903141409 | 93 | 295 | 1.7 | 4.3 | 0.00 | 0.00 | 0.00 | 34 | 1013.2 |
| 20260903140909 | 93 | 333 | 2.6 | 6.1 | 0.00 | 0.00 | 0.00 | 33 | 1013.2 |
| 20260903140409 | 93 | 322 | 2.6 | 5.2 | 0.00 | 0.00 | 0.00 | 34 | 1013.1 |
| 20260903135908 | 93 | 296 | 2.6 | 6.1 | 0.00 | 0.00 | 0.00 | 34 | 1013.1 |
| 20260903135410 | 93 | 302 | 2.6 | 5.2 | 0.00 | 0.00 | 0.00 | 33 | 1013.1 |
| 20260903134909 | 93 | 311 | 1.7 | 2.6 | 0.00 | 0.00 | 0.00 | 33 | 1013.2 |
| 20260903134409 | 93 | 316 | 1.7 | 4.3 | 0.00 | 0.00 | 0.00 | 34 | 1013.2 |
| 20260903133909 | 93 | 332 | 2.6 | 6.1 | 0.00 | 0.00 | 0.00 | 34 | 1013.3 |
| 20260903133409 | 93 | 322 | 2.6 | 6.1 | 0.00 | 0.00 | 0.00 | 33 | 1013.3 |
| 20260903132909 | 93 | 300 | 1.7 | 2.6 | 0.00 | 0.00 | 0.00 | 34 | 1013.3 |
| 20260903132408 | 92 | 296 | 2.6 | 2.6 | 0.00 | 0.00 | 0.00 | 35 | 1013.3 |
| 20260903131909 | 92 | 302 | 4.3 | 6.1 | 0.00 | 0.00 | 0.00 | 36 | 1013.4 |
| 20260903130908 | 92 | 304 | 3.5 | 7.0 | 0.00 | 0.00 | 0.00 | 35 | 1013.4 |
| 20260903130410 | 92 | 290 | 3.5 | 7.0 | 0.00 | 0.00 | 0.00 | 35 | 1013.5 |
| 20260903125908 | 92 | 295 | 3.5 | 5.2 | 0.00 | 0.00 | 0.00 | 35 | 1013.5 |
| 20260903125408 | 92 | 297 | 2.6 | 6.1 | 0.00 | 0.00 | 0.00 | 34 | 1013.4 |
| 20260903124908 | 93 | 321 | 1.7 | 4.3 | 0.00 | 0.00 | 0.00 | 34 | 1013.5 |
| 20260903124409 | 93 | 244 | 2.6 | 4.3 | 0.00 | 0.00 | 0.00 | 36 | 1013.5 |
| 20260903123909 | 92 | 291 | 1.7 | 4.3 | 0.00 | 0.00 | 0.00 | 35 | 1013.5 |
| 20260903123408 | 92 | 300 | 2.6 | 6.1 | 0.00 | 0.00 | 0.00 | 34 | 1013.6 |
| 20260903122409 | 93 | 346 | 2.6 | 11.3 | 0.00 | 0.00 | 0.00 | 34 | 1013.6 |
| 20260903121909 | 93 | 348 | 2.6 | 5.2 | 0.00 | 0.00 | 0.00 | 33 | 1013.6 |
| 20260903121408 | 93 | 312 | 2.6 | 5.2 | 0.00 | 0.00 | 0.00 | 32 | 1013.7 |
| 20260903120409 | 92 | 267 | 2.6 | 5.2 | 0.00 | 0.00 | 0.00 | 34 | 1013.7 |
| 20260903115909 | 92 | 257 | 1.7 | 4.3 | 0.00 | 0.00 | 0.00 | 33 | 1013.7 |
| 20260903115409 | 93 | 309 | 2.6 | 6.1 | 0.00 | 0.00 | 0.00 | 32 | 1013.8 |
| 20260903114908 | 93 | 324 | 2.6 | 5.2 | 0.00 | 0.00 | 0.00 | 31 | 1013.8 |
| 20260903114409 | 93 | 315 | 1.7 | 4.3 | 0.00 | 0.00 | 0.00 | 32 | 1013.8 |
| 20260903113910 | 93 | 288 | 2.6 | 5.2 | 0.00 | 0.00 | 0.00 | 32 | 1013.8 |
| 20260903113410 | 93 | 286 | 1.7 | 2.6 | 0.00 | 0.00 | 0.00 | 33 | 1013.9 |
| 20260903112909 | 93 | 316 | 1.7 | 2.6 | 0.00 | 0.00 | 0.00 | 32 | 1013.9 |
| 20260903111909 | 93 | 306 | 1.7 | 5.2 | 0.00 | 0.00 | 0.00 | 32 | 1014.0 |
| 20260903110909 | 92 | 311 | 2.6 | 7.0 | 0.00 | 0.00 | 0.00 | 32 | 1014.1 |
| 20260903110409 | 92 | 338 | 2.6 | 4.3 | 0.00 | 0.00 | 0.00 | 32 | 1014.2 |
| 20260903105909 | 92 | 293 | 2.6 | 4.3 | 0.00 | 0.00 | 0.00 | 31 | 1014.1 |
| 20260903105409 | 92 | 303 | 1.7 | 4.3 | 0.00 | 0.00 | 0.00 | 31 | 1014.2 |
| 20260903104908 | 92 | 287 | 1.7 | 4.3 | 0.00 | 0.00 | 0.00 | 31 | 1014.2 |
| 20260903104409 | 92 | 349 | 2.6 | 4.3 | 0.00 | 0.00 | 0.00 | 32 | 1014.3 |
| 20260903103408 | 92 | 293 | 1.7 | 2.6 | 0.00 | 0.00 | 0.00 | 35 | 1014.4 |
| 20260903102909 | 91 | 328 | 1.7 | 2.6 | 0.00 | 0.00 | 0.00 | 35 | 1014.4 |
| 20260903101910 | 91 | 259 | 1.7 | 2.6 | 0.00 | 0.00 | 0.00 | 40 | 1014.5 |
| 20260903101409 | 90 | 268 | 1.7 | 2.6 | 0.00 | 0.00 | 0.00 | 39 | 1014.5 |
| 20260903100412 | 89 | 230 | 2.6 | 2.6 | 0.00 | 0.00 | 0.00 | 44 | 1014.7 |
| 20260903095909 | 89 | 235 | 1.7 | 2.6 | 0.00 | 0.00 | 0.00 | 45 | 1014.7 |
| 20260903095409 | 88 | 179 | 0.9 | 1.7 | 0.00 | 0.00 | 0.00 | 43 | 1014.7 |
| 20260903094909 | 88 | 213 | 1.7 | 2.6 | 0.00 | 0.00 | 0.00 | 48 | 1014.8 |
| 20260903093909 | 88 | 182 | 1.7 | 2.6 | 0.00 | 0.00 | 0.00 | 48 | 1014.9 |
| 20260903093408 | 87 | 243 | 1.7 | 2.6 | 0.00 | 0.00 | 0.00 | 50 | 1014.9 |
| 20260903092908 | 87 | 219 | 1.7 | 4.3 | 0.00 | 0.00 | 0.00 | 47 | 1014.9 |
| 20260903092408 | 87 | 235 | 2.6 | 2.6 | 0.00 | 0.00 | 0.00 | 53 | 1015.0 |
| 20260903091909 | 87 | 217 | 1.7 | 2.6 | 0.00 | 0.00 | 0.00 | 53 | 1015.0 |
| 20260903090909 | 87 | 220 | 1.7 | 2.6 | 0.00 | 0.00 | 0.00 | 53 | 1015.1 |
| 20260903090409 | 86 | 229 | 1.7 | 2.6 | 0.00 | 0.00 | 0.00 | 54 | 1015.1 |
| 20260903085409 | 85 | 227 | 1.7 | 2.6 | 0.00 | 0.00 | 0.00 | 58 | 1015.1 |
| 20260903084908 | 85 | 217 | 1.7 | 2.6 | 0.00 | 0.00 | 0.00 | 60 | 1015.1 |
| 20260903084409 | 85 | 223 | 1.7 | 2.6 | 0.00 | 0.00 | 0.00 | 59 | 1015.1 |
| 20260903083408 | 84 | 219 | 1.7 | 2.6 | 0.00 | 0.00 | 0.00 | 58 | 1015.1 |
| 20260903082908 | 84 | 225 | 0.9 | 2.6 | 0.00 | 0.00 | 0.00 | 60 | 1015.1 |
| 20260903082409 | 84 | 222 | 1.7 | 2.6 | 0.00 | 0.00 | 0.00 | 60 | 1015.1 |
| 20260903081908 | 83 | 255 | 1.7 | 2.6 | 0.00 | 0.00 | 0.00 | 59 | 1015.0 |
| 20260903081408 | 83 | 235 | 1.7 | 2.6 | 0.00 | 0.00 | 0.00 | 60 | 1015.0 |
| 20260903080909 | 83 | 249 | 1.7 | 2.6 | 0.00 | 0.00 | 0.00 | 60 | 1015.0 |
| 20260903080409 | 83 | 259 | 1.7 | 2.6 | 0.00 | 0.00 | 0.00 | 61 | 1015.0 |
| 20260903075908 | 82 | 249 | 1.7 | 2.6 | 0.00 | 0.00 | 0.00 | 62 | 1015.0 |
| 20260903075408 | 82 | 256 | 1.7 | 2.6 | 0.00 | 0.00 | 0.00 | 61 | 1015.0 |
| 20260903074908 | 82 | 248 | 1.7 | 2.6 | 0.00 | 0.00 | 0.00 | 62 | 1015.0 |
| 20260903074408 | 82 | 275 | 1.7 | 2.6 | 0.00 | 0.00 | 0.00 | 61 | 1015.0 |
| 20260903073909 | 82 | 245 | 1.7 | 2.6 | 0.00 | 0.00 | 0.00 | 62 | 1015.0 |
| 20260903073407 | 82 | 271 | 1.7 | 2.6 | 0.00 | 0.00 | 0.00 | 63 | 1015.0 |
| 20260903072908 | 81 | 246 | 1.7 | 2.6 | 0.00 | 0.00 | 0.00 | 62 | 1015.0 |
| 20260903072410 | 81 | 271 | 1.7 | 2.6 | 0.00 | 0.00 | 0.00 | 63 | 1015.0 |
| 20260903071909 | 81 | 271 | 2.6 | 2.6 | 0.00 | 0.00 | 0.00 | 62 | 1014.9 |
| 20260903071408 | 81 | 258 | 1.7 | 2.6 | 0.00 | 0.00 | 0.00 | 63 | 1015.0 |
| 20260903070909 | 81 | 269 | 1.7 | 2.6 | 0.00 | 0.00 | 0.00 | 63 | 1014.9 |
| 20260903070409 | 81 | 257 | 1.7 | 2.6 | 0.00 | 0.00 | 0.00 | 64 | 1014.9 |
| 20260903065409 | 81 | 254 | 1.7 | 2.6 | 0.00 | 0.00 | 0.00 | 64 | 1014.9 |
| 20260903064915 | 80 | 257 | 1.7 | 2.6 | 0.00 | 0.00 | 0.00 | 64 | 1014.8 |
| 20260903064410 | 80 | 260 | 1.7 | 2.6 | 0.00 | 0.00 | 0.00 | 65 | 1014.8 |
| 20260903063909 | 80 | 272 | 2.6 | 2.6 | 0.00 | 0.00 | 0.00 | 64 | 1014.8 |
| 20260903063409 | 80 | 257 | 1.7 | 2.6 | 0.00 | 0.00 | 0.00 | 65 | 1014.9 |
| 20260903062908 | 80 | 270 | 2.6 | 2.6 | 0.00 | 0.00 | 0.00 | 65 | 1014.8 |
| 20260903062408 | 80 | 267 | 2.6 | 2.6 | 0.00 | 0.00 | 0.00 | 65 | 1014.9 |
| 20260903061410 | 80 | 276 | 1.7 | 2.6 | 0.00 | 0.00 | 0.00 | 66 | 1015.0 |
| 20260903060910 | 80 | 255 | 1.7 | 2.6 | 0.00 | 0.00 | 0.00 | 66 | 1015.0 |
| 20260903060409 | 80 | 255 | 0.9 | 2.6 | 0.00 | 0.00 | 0.00 | 67 | 1015.0 |
| 20260903055409 | 80 | 270 | 1.7 | 2.6 | 0.00 | 0.00 | 0.00 | 67 | 1015.0 |
| 20260903054411 | 80 | 259 | 2.6 | 2.6 | 0.00 | 0.00 | 0.00 | 68 | 1015.0 |
| 20260903053909 | 80 | 264 | 1.7 | 2.6 | 0.00 | 0.00 | 0.00 | 69 | 1014.9 |
| 20260903052909 | 80 | 280 | 1.7 | 2.6 | 0.00 | 0.00 | 0.00 | 72 | 1014.8 |
| 20260903052410 | 80 | 245 | 1.7 | 2.6 | 0.00 | 0.00 | 0.00 | 72 | 1014.8 |
| 20260903051909 | 80 | 308 | 0.9 | 2.6 | 0.00 | 0.00 | 0.00 | 72 | 1014.8 |
| 20260903050908 | 80 | 228 | 1.7 | 2.6 | 0.00 | 0.00 | 0.00 | 72 | 1014.8 |
| 20260903050409 | 80 | 241 | 1.7 | 2.6 | 0.00 | 0.00 | 0.00 | 72 | 1014.8 |
| 20260903045910 | 80 | 247 | 1.7 | 2.6 | 0.00 | 0.00 | 0.00 | 72 | 1014.8 |
| 20260903045409 | 79 | 277 | 0.9 | 2.6 | 0.00 | 0.00 | 0.00 | 72 | 1014.8 |
| 20260903044908 | 79 | 289 | 1.7 | 2.6 | 0.00 | 0.00 | 0.00 | 72 | 1014.8 |
| 20260903044409 | 79 | 262 | 1.7 | 2.6 | 0.00 | 0.00 | 0.00 | 71 | 1014.8 |
| 20260903043908 | 80 | 271 | 0.9 | 2.6 | 0.00 | 0.00 | 0.00 | 71 | 1014.7 |
| 20260903043408 | 80 | 277 | 1.7 | 2.6 | 0.00 | 0.00 | 0.00 | 71 | 1014.7 |
| 20260903042908 | 80 | 281 | 0.9 | 2.6 | 0.00 | 0.00 | 0.00 | 71 | 1014.7 |
| 20260903042408 | 80 | 285 | 1.7 | 2.6 | 0.00 | 0.00 | 0.00 | 71 | 1014.7 |
| 20260903041908 | 80 | 289 | 1.7 | 2.6 | 0.00 | 0.00 | 0.00 | 70 | 1014.7 |
| 20260903041408 | 80 | 278 | 1.7 | 2.6 | 0.00 | 0.00 | 0.00 | 70 | 1014.6 |
| 20260903040909 | 80 | 313 | 1.7 | 2.6 | 0.00 | 0.00 | 0.00 | 69 | 1014.7 |